Location: Cooling
(51.4500°N, 0.5333°E)
Time: 11:45:33
(UTC+00:00)

Daily predictions for brighter satellites

Satellite Brightness Start Highest point End
(mag) Time Altitude Azimuth Time Altitude Azimuth Time Altitude Azimuth
SMAP 3.6 16:26:06 10° SE 16:30:23 38° ENE 16:34:42 10° N
CZ-2C R/B 2.9 16:27:35 10° SSE 16:32:26 65° ENE 16:37:10 10° N
Cosmos 1898 Rocket 3.7 16:27:33 10° NNW 16:32:40 48° ENE 16:37:43 10° SE
Cosmos 44 3.7 16:28:20 10° NW 16:33:10 66° SW 16:37:40 10° SSE
Cosmos 1805 Rocket 4.5 16:29:45 10° N 16:33:26 26° ENE 16:37:06 10° SE
Cosmos 1461 3.9 16:29:52 10° WSW 16:33:47 38° NW 16:37:37 10° NNE
Sich 1 4.2 16:30:40 10° NNE 16:34:02 22° ENE 16:37:24 10° ESE
Okean 3 Rocket 4.1 16:32:30 10° NNW 16:37:00 66° W 16:41:25 10° S
Cosmos 2360 Rocket 4.0 16:34:41 10° N 16:37:09 13° NNE 16:39:37 10° NE
Cosmos 1842 Rocket 3.8 16:35:43 10° S 16:40:02 52° E 16:44:24 10° NNE
Cosmos 2221 2.6 16:35:55 10° S 16:40:07 58° E 16:44:22 10° NNE
Cosmos 1513 Rocket 4.5 16:34:28 10° S 16:40:34 74° E 16:46:48 10° NNE
SL-08 R/B 3.3 16:39:52 10° NNE 16:44:38 70° ESE 16:49:16 10° S
Cosmos 2084 3.6 16:45:04 10° NW 16:49:20 82° SW 16:53:47 10° SE
deb Kosmos-1763 4.0 16:45:59 10° SSW 16:49:24 76° WNW 16:52:50 10° NNE
Cosmos 1656 3.9 16:44:20 10° NNW 16:49:51 75° WSW 16:55:26 10° SSE
AQUARIUS 4.3 16:49:35 10° SE 16:53:55 51° ENE 16:58:17 10° N
NOSS 2-1 (E) 3.6 16:51:36 10° WSW 16:54:44 46° NW 16:58:03 11° NE
MOS 1 Rocket 4.3 16:50:26 10° N 16:55:23 51° WNW 17:00:02 10° SW
FengYun 1-2 T 4.2 16:49:50 10° SSE 16:55:24 77° ENE 17:00:58 10° NNW
NOSS 2-2 (C) 4.2 16:51:04 10° NW 16:55:42 56° NE 17:02:08 10° ESE
H-2A R/B 2.5 16:51:42 10° SE 16:56:25 37° ENE 17:01:01 10° N
Cosmos 2034 Rocket 4.0 16:50:53 10° S 16:56:56 64° E 17:03:02 10° NNE
Cosmos 1666 4.1 16:54:37 10° NNE 16:57:04 16° ENE 16:59:29 10° ESE
Cosmos 2322 Rocket 3.7 16:53:21 10° NNW 16:57:12 18° NNE 17:00:05 13° ENE
ERBS 2.4 16:54:03 10° WSW 16:57:13 59° NNW 16:59:46 15° NE
USA 306 3.0 16:56:02 10° W 17:00:17 65° N 17:03:44 15° ENE
Cosmos 1697 Rocket 2.6 16:55:34 10° NNW 17:01:13 75° ENE 17:06:50 10° SE
Cosmos 1271 Rocket 4.0 16:58:18 10° SW 17:02:04 42° WNW 17:05:54 10° N
USA 267 3.4 16:58:13 12° ENE 17:04:21 67° SE 17:10:51 10° SW
Cosmos 2369 3.8 16:58:51 10° NNW 17:04:32 58° NE 17:10:10 10° SE
Cosmos 1980 Rocket 2.4 16:59:28 10° NNW 17:05:00 48° NE 17:10:27 10° SE
COSMO-SKYMED 1 4.0 17:05:08 15° ENE 17:06:51 18° E 17:09:54 10° SE
Cosmos 1763 Rocket 3.6 17:03:34 10° S 17:08:30 54° ESE 17:13:29 10° NNE
SL-24 R/B - RUBIN 2 3.6 17:05:21 10° NW 17:09:58 57° NE 17:14:16 10° ESE
Cosmos 1939 Rocket 2.9 17:05:53 10° SSE 17:10:00 87° ENE 17:14:07 10° NNW
Meteor 1-25 Rocket 4.1 17:04:39 10° N 17:10:15 74° ENE 17:15:51 10° SSE
Cosmos 841 Rocket 4.3 17:09:44 10° SSE 17:14:08 29° ESE 17:17:15 16° NE
Cosmos 1937 Rocket 3.5 17:08:58 10° NNW 17:14:19 72° ENE 17:19:37 10° SSE
SL-16 R/B 3.3 17:10:03 10° NNW 17:14:40 24° NE 17:17:26 17° ENE
H-2A R/B 4.5 17:17:11 11° NNE 17:17:11 11° NNE 17:17:31 10° NNE
Cosmos 1812 4.0 17:13:23 10° SE 17:16:12 20° E 17:16:31 20° E
Cosmos 2237 Rocket 4.4 17:16:17 10° N 17:16:48 10° N 17:17:19 10° N
Cosmos 1633 Rocket 3.9 17:13:39 10° N 17:17:24 27° ENE 17:21:09 10° SE
USA 307 3.1 17:14:21 10° W 17:18:36 63° N 17:21:20 21° ENE
Cosmos 1634 Rocket 4.3 17:12:41 10° SSE 17:18:41 47° E 17:24:42 10° NNE
USA 229 DEB 4.2 17:11:38 10° NW 17:18:53 73° SW 17:26:37 10° SSE
USA 229 4.2 17:11:44 10° NW 17:18:59 73° SW 17:26:42 10° SSE
Cosmos 2082 Rocket 3.1 17:16:48 10° SSE 17:21:36 29° ESE 17:24:28 19° ENE
YAOGAN 1 3.9 17:22:20 19° NE 17:22:20 19° NE 17:25:05 10° NNE
Cosmos 2333 Rocket 4.0 17:19:41 10° N 17:22:43 14° NNE 17:24:10 13° NE
Cosmos 2026 Rocket 3.9 17:16:51 10° N 17:23:00 68° ENE 17:29:03 10° SSE
NOAA 6 4.2 17:18:13 10° SSE 17:23:23 80° WSW 17:28:33 10° NNW
SeaSat 1 4.3 17:20:07 10° NNE 17:24:02 24° NW 17:27:57 10° W
Cosmos 2195 Rocket 4.4 17:20:04 10° N 17:26:15 82° E 17:32:28 10° SSE
CZ-4B DEB 4.2 17:22:26 10° SSE 17:27:58 88° ENE 17:33:30 10° NNW
CORIOLIS 4.3 17:22:41 10° SSE 17:28:05 82° WSW 17:33:34 10° NNW
ATLAS 2AS CENTAUR R/B 3.9 17:21:18 10° WNW 17:28:15 35° NNW 17:33:27 16° NE
Cosmos 372 Rocket 4.0 17:23:25 10° NNW 17:28:37 63° ENE 17:33:49 10° SE
Cosmos 1602 3.6 17:25:04 10° N 17:28:56 85° E 17:32:48 10° S
Cosmos 2278 3.8 17:23:23 10° NNW 17:28:59 52° NE 17:34:33 10° SE
Cosmos 1743 Rocket 4.0 17:26:44 10° NNW 17:31:01 62° W 17:35:17 10° S
Okean O Rocket 2.0 17:27:01 10° SE 17:31:12 40° ENE 17:35:23 10° N
ATLAS CENTAUR R/B 3.2 17:29:35 10° W 17:33:12 25° NNW 17:36:14 13° NNE
SL-16 R/B 4.4 17:32:59 10° NNW 17:34:47 11° NNW 17:36:35 10° N
Meteor 2-14 Rocket 4.3 17:29:05 10° N 17:35:14 77° ENE 17:41:19 10° SSE
Cosmos 1782 2.9 17:33:05 10° S 17:36:58 52° E 17:39:44 18° NNE
Cosmos 1151 Rocket 3.7 17:33:12 10° SSE 17:37:02 32° E 17:38:08 28° ENE
COSMOS 2406 3.3 17:33:25 10° SSW 17:39:03 60° ESE 17:43:04 19° NE
USA 234 4.0 17:33:32 10° SE 17:39:53 52° SW 17:46:16 10° WNW
COSMOS 2455 3.2 17:35:10 10° S 17:40:48 44° ESE 17:43:55 25° ENE
USA 308 3.0 17:36:51 10° W 17:41:06 60° N 17:42:51 32° ENE
Cosmos 1666 Rocket 3.6 17:38:05 10° N 17:42:29 53° ENE 17:46:48 10° SSE
ARGOS 3.2 17:39:38 10° SE 17:44:55 58° ENE 17:50:14 10° N
Cosmos 1470 Rocket 4.3 17:41:30 10° N 17:45:00 30° ENE 17:45:00 30° ENE
Cosmos 1833 Rocket 2.6 17:39:56 10° SSW 17:45:33 81° ESE 17:49:48 18° NNE
ISS -3.2 17:45:27 10° W 17:48:47 55° SSW 17:50:10 30° SE
NOSS 2-2 (D) 4.4 17:44:04 10° NW 17:49:02 79° SW 17:56:01 10° SE
Cosmos 1328 Rocket 4.3 17:47:25 10° SSE 17:50:52 32° ESE 17:50:52 32° ESE
Cosmos 2219 Rocket 3.9 17:48:57 10° N 17:52:14 15° NNE 17:52:22 15° NNE
CZ-2D R/B 3.6 17:48:42 10° S 17:52:31 68° WSW 17:56:21 10° NNW
PAYLOAD B 4.5 17:49:25 10° S 17:55:01 74° WSW 18:00:40 10° NNW
SKYMED 2 3.7 17:53:45 33° NE 17:55:18 49° E 17:59:31 10° S
CZ-4 R/B 4.4 17:51:33 10° SSE 17:55:37 61° ENE 17:59:44 10° N
Lacrosse 5 rocket 1.3 17:51:52 10° WNW 17:55:43 58° NNE 17:56:30 47° ENE
Meteor 2-21 Rocket 4.3 17:50:51 10° N 17:57:00 83° E 18:03:05 10° SSE
CZ-4 R/B 3.2 17:59:49 17° NNE 17:59:49 17° NNE 18:00:59 10° N
Cosmos 2298 Rocket 4.3 17:53:51 10° NNW 17:58:56 43° NE 18:00:27 35° E
Landsat 5 4.2 18:00:26 34° SE 18:00:26 34° SE 18:03:25 10° SSE
Cosmos 1570 Rocket 4.4 17:56:38 10° S 18:01:28 39° ESE 18:02:05 38° E
CZ-4B R/B 3.1 17:56:28 10° SSE 18:01:54 88° WSW 18:07:17 10° NNW
ATLAS CENTAUR R/B 2.5 17:53:18 10° SW 18:02:00 75° SSE 18:03:25 43° ENE
Cosmos 1500 3.6 17:59:33 10° NNW 18:03:15 60° W 18:06:55 10° S
CZ-2C R/B 2.5 17:59:22 18° NNE 18:03:17 60° E 18:08:23 10° S
SL-08 RB Rocket 3.7 18:00:09 10° SSE 18:04:42 58° ENE 18:09:14 10° N
GEOS 3 Rocket 3.5 18:02:08 26° ESE 18:05:08 71° NE 18:10:19 10° NW
Cosmos 540 Rocket 3.4 18:00:12 10° SSW 18:05:19 90° N 18:08:24 25° NNE
Meteor 1-11 Rocket 4.0 18:01:28 10° N 18:06:46 41° ENE 18:07:51 37° E
Cosmos 1818 3.5 18:01:17 10° NW 18:06:46 65° NE 18:09:03 35° ESE
USA 305 2.9 18:04:07 10° WNW 18:08:20 63° N 18:08:56 55° NE
Cosmos 1814 Rocket 4.1 18:04:06 10° S 18:09:08 50° ESE 18:10:09 44° ENE
Cosmos 44 Rocket 3.2 18:05:38 10° NW 18:10:36 64° NE 18:11:47 48° ESE
CZ-4C R/B 2.9 18:03:45 10° NW 18:10:47 87° SW 18:19:08 10° SE
Sich 1 4.0 18:07:50 10° NNW 18:11:57 47° W 18:16:04 10° SSW
Meteor 1-26 Rocket 4.4 18:06:45 10° SSW 18:12:44 82° WNW 18:18:49 10° NNE
Cosmos 1933 4.5 18:09:54 10° SSW 18:13:47 43° WNW 18:17:36 10° N
IRS-1C Rocket 4.5 18:20:33 42° NE 18:20:33 42° NE 18:24:51 10° N
Feng Yun 1-1 Rocket 4.2 18:14:50 10° SSE 18:20:44 75° ENE 18:26:37 10° NNW
Cosmos 2360 Rocket 3.1 18:18:01 10° NNW 18:22:13 30° NNE 18:22:13 30° NNE
COSMOS 2428 4.4 18:24:46 10° NNW 18:27:32 18° NNE 18:27:32 18° NNE
deb Chang Zheng 4 4.4 18:24:51 10° S 18:29:03 51° W 18:33:17 10° NNW
Cosmos 1666 3.5 18:29:16 10° NNW 18:32:54 50° W 18:36:29 10° S
ERBS 4.3 18:30:41 10° WNW 18:32:20 22° NW 18:32:20 22° NW
Cosmos 2208 Rocket 4.1 18:28:51 10° S 18:33:46 57° SE 18:33:46 57° SE
H-2A R/B 3.5 18:31:04 10° SSW 18:35:51 38° W 18:40:34 10° NNW
Cosmos 2150 Rocket 3.8 18:31:45 10° NNW 18:36:56 73° ENE 18:37:02 73° ENE
USA 306 3.3 18:36:11 10° WNW 18:39:44 56° NW 18:39:44 56° NW
Cosmos 2322 Rocket 2.4 18:36:53 10° NNW 18:41:56 54° NNE 18:41:56 54° NNE
COSMO-SKYMED 1 3.0 18:42:21 45° NNW 18:43:25 59° WNW 18:47:40 10° SSW
USA 267 3.4 18:45:34 47° NE 18:47:25 66° NNW 18:53:53 10° W
Cosmos 2279 Rocket 4.2 18:42:00 10° SSW 18:48:11 68° WNW 18:54:24 10° N
Cosmos 1980 Rocket 3.6 18:43:44 10° NW 18:48:54 37° WSW 18:54:00 10° S
Cosmos 2266 Rocket 3.9 18:43:24 10° N 18:49:49 89° WSW 18:56:15 10° S
Cosmos 1812 3.9 18:48:02 10° SW 18:51:36 40° WNW 18:51:36 40° WNW
Cosmos 1633 Rocket 4.4 18:51:15 10° NNW 18:55:18 38° W 18:59:20 10° SSW
Cosmos 841 Rocket 4.2 18:50:48 10° SW 18:55:47 49° WNW 18:57:22 37° N
YAOGAN 1 3.9 18:59:29 33° NNW 18:59:29 33° NNW 19:01:59 10° NNW
Cosmos 1125 Rocket 3.6 18:52:41 10° NNW 18:57:27 73° NW 18:57:27 73° NW
USA 307 4.0 18:54:30 10° WNW 18:57:22 41° WNW 18:57:22 41° WNW
SL-16 R/B 2.1 18:53:50 10° NNW 18:59:21 84° NNW 18:59:21 84° NNW
Cosmos 2237 Rocket 4.4 19:00:15 10° N 19:01:32 13° N 19:01:32 13° N
Meteor 2-15 Rocket 4.3 18:57:46 10° S 19:03:20 74° SSE 19:03:20 74° SSE
Cosmos 2082 Rocket 2.6 18:59:45 10° SW 19:05:22 59° NW 19:06:21 52° NNW
Okean O Rocket 3.6 19:03:50 10° SSW 19:07:40 28° W 19:11:31 10° NW
Cosmos 2333 Rocket 3.7 19:03:27 10° NNW 19:06:12 25° N 19:06:12 25° N
ATLAS CENTAUR R/B 4.0 19:10:44 10° NW 19:12:21 15° NNW 19:12:21 15° NNW
NOSS 3-4 (A) 4.3 19:11:56 10° NW 19:17:15 43° N 19:17:15 43° N
NOSS 3-4 (C) 4.3 19:12:02 10° NW 19:17:20 43° N 19:17:20 43° N
ATLAS 2AS CENTAUR R/B 3.7 19:14:20 10° NW 19:20:53 35° N 19:20:53 35° N
ISS -0.2 19:23:01 10° WSW 19:23:10 11° WSW 19:23:10 11° WSW
COSMOS 2455 3.5 19:20:54 10° WSW 19:26:44 49° NW 19:27:05 49° NNW
Cosmos 1833 Rocket 4.4 19:25:27 10° W 19:30:09 26° NW 19:31:31 24° NNW
CZ-4 R/B 4.4 19:35:49 10° NW 19:35:49 10° NW 19:35:53 10° NW
Lacrosse 5 rocket 4.0 19:31:01 10° WNW 19:32:07 17° WNW 19:32:07 17° WNW
Cosmos 2219 Rocket 4.1 19:32:19 10° NNW 19:34:05 20° NNW 19:34:05 20° NNW
CZ-2C R/B 4.5 19:40:54 19° NNW 19:43:14 25° WNW 19:47:25 10° WSW
Cosmos 2360 Rocket 4.1 20:01:53 10° NW 20:04:00 23° NW 20:04:00 23° NW
Cosmos 2322 Rocket 4.4 20:21:23 10° NW 20:23:46 22° WNW 20:23:46 22° WNW
